Hourly Data Report for October 17, 2014

All times are specified in Local Standard Time (LST). Add 1 hour to adjust for Daylight Saving Time where and when it is observed.

MONCTON INTL A
NEW BRUNSWICK

46°06'44.000" N
64°40'43.000" W
70.70 m
8103201
71705
YQM

Download Data

Hourly Data (October 2014)
Hourly Data Report for October 17, 2014
Temp Definition
°C
Dew Point Temp Definition
°C
Rel Hum Definition
%
Wind Dir Definition
10's deg

Wind Spd Definition
km/h
Visibility Definition
km
Stn Press Definition
kPa
Hmdx Definition


Wind Chill Definition


Weather Definition


TIME
00:00 Legend Double Dagger 18.1 17.3 95 15 18 19.3 100.68     LegendNANA
01:00 Legend Double Dagger 18.0 17.2 95 14 19 24.1 100.61     LegendNANA
02:00 Legend Double Dagger 17.8 16.8 94 15 18 24.1 100.55     Cloudy
03:00 Legend Double Dagger 17.5 16.7 95 15 20 24.1 100.49     Drizzle
04:00 Legend Double Dagger 17.2 16.4 95 14 21 16.1 100.39     Rain Showers
05:00 Legend Double Dagger 17.2 16.2 94 13 24 24.1 100.34     Cloudy
06:00 Legend Double Dagger 17.1 16.1 94 13 20 24.1 100.25     LegendNANA
07:00 Legend Double Dagger 17.1 16.1 94 12 19 24.1 100.18     LegendNANA
08:00 Legend Double Dagger 17.3 16.3 94 11 18 24.1 100.11     Cloudy
09:00 Legend Double Dagger 18.2 16.9 92 13 16 24.1 99.99     LegendNANA
10:00 Legend Double Dagger 18.6 17.5 93 13 23 19.3 99.86     Rain
11:00 Legend Double Dagger 18.8 17.5 92 13 28 4.0 99.70     Rain,Fog
12:00 Legend Double Dagger 18.5 17.4 93 13 31 19.3 99.43     Rain
13:00 Legend Double Dagger 19.0 17.9 93 15 34 9.7 99.21     Rain,Fog
14:00 Legend Double Dagger 17.3 16.0 92 21 31 3.2 99.19     Moderate Rain,Fog
15:00 Legend Double Dagger 16.8 15.3 91 21 23 24.1 99.25     LegendNANA
16:00 Legend Double Dagger 17.1 14.4 84 20 30 24.1 99.27     LegendNANA
17:00 Legend Double Dagger 15.5 12.5 82 20 23 24.1 99.33     Mostly Cloudy
18:00 Legend Double Dagger 15.1 12.5 84 19 24 24.1 99.40     LegendNANA
19:00 Legend Double Dagger 15.4 12.6 83 20 25 24.1 99.49     LegendNANA
20:00 Legend Double Dagger 14.6 12.1 85 21 24 24.1 99.50     Mainly Clear
21:00 Legend Double Dagger 13.8 11.9 88 20 16 24.1 99.55     LegendNANA
22:00 Legend Double Dagger 12.8 11.1 89 18 7 24.1 99.59     LegendNANA
23:00 Legend Double Dagger 12.4 10.8 90 19 11 24.1 99.59     Clear

Notes on Data Quality.

Legend

  • E = Estimated
  • M = Missing
  • NA = Not Available
  • ‡ = Partner data that is not subject to review by the National Climate Archives
Date modified: